Regional Weather Roundup
Issued by NWS

Home | Current Version | Previous Version | Text Only | Print | Product List | Glossary Off
Versions: 1 2 3 4 5 6 7 8 9 10 11 12 13 14 15 16 17 18 19 20 21 22 23 24 25 26 27 28 29 30 31 32 33 34 35 36 37 38 39 40 41 42 43 44 45 46 47 48 49 50

000
ASUS43 KIND 262109
RWRIN

WEATHER ROUNDUP FOR INDIANA
NATIONAL WEATHER SERVICE INDIANAPOLIS IN
500 PM EDT TUE JUL 26 2016

NOTE: "FAIR" INDICATES FEW OR NO CLOUDS BELOW 12,000 FEET WITH NO
SIGNIFICANT WEATHER AND/OR OBSTRUCTIONS TO VISIBILITY.

* - STATION DOES NOT REPORT WEATHER SUCH AS PRECIPITATION OR FOG.

+ - STATION NOT QUALITY CONTROLLED BY THE NATIONAL WEATHER SERVICE.
    USE DATA WITH CAUTION...ESPECIALLY DEWPOINT AND RELATIVE
    HUMIDITY OBSERVATIONS.

INZ001>003-010>013-019-020-262200-
NORTHWEST INDIANA

CITY           SKY/WX    TMP DP  RH WIND       PRES   REMARKS
GARY /AIRPORT/ MOSUNNY   84  70  61 N5        30.02F
KNOX *+        MOSUNNY   82  52  34 CALM      30.01F
LA PORTE +     PTSUNNY   86  66  50 SW5       30.03S
MICHIGAN CITY+ SUNNY     82  63  51 N7        30.03S
MONTICELLO +   SUNNY     83  64  51 CALM      30.01F
RENSSELAER +   SUNNY     82  66  57 NE3       30.02F
VALPARAISO     SUNNY     85  65  51 N5        30.02F

$$

LMZ046-743>745-262200-
SOUTHERN LAKE MICHIGAN

STATION/POSITION TIME  TEMP    WIND        PRES    WAVE
                       AIR SEA DIR/SP/G            HT
                 (UTC) (F)     (DEG/KT/KT) (MB)    (FT)
BURNS HARBOR     2000   77      30/ 10/ 10 1017.3F
MICHIGAN CITY    2000   78     350/  9/ 10   N/A
5NW MICH CITY    2000   77 77   10/  6/  8   N/A     0

$$

INZ004-005-014>016-021>024-262200-
NORTH CENTRAL INDIANA

CITY           SKY/WX    TMP DP  RH WIND       PRES   REMARKS
ELKHART        MOSUNNY   84  66  54 N5        30.02F
GOSHEN         SUNNY     85  55  35 CALM      30.02F
LOGANSPORT +   CLOUDY    82  64  54 S3        30.02F
ROCHESTER +    SUNNY     86  68  54 N6        30.02F
SOUTH BEND     MOSUNNY   83  60  45 NW3       30.02F
WARSAW +       MOSUNNY   82  61  47 NE5       30.02F

$$

INZ006>009-017-018-025>027-262200-
NORTHEAST INDIANA

CITY           SKY/WX    TMP DP  RH WIND       PRES   REMARKS
ANGOLA *+        N/A     88  84  89 CALM      30.02F HX 112
AUBURN +       SUNNY     86  54  32 CALM      30.02S
FORT WAYNE     PTSUNNY   85  62  46 VRB5      30.01F
HUNTINGTON +   SUNNY     83  63  50 SE5       30.01S

$$

INZ028-029-035-036-043>045-051>053-262200-
WEST CENTRAL INDIANA

CITY           SKY/WX    TMP DP  RH WIND       PRES   REMARKS
CRAWFORDSVL +  SUNNY     80  64  59 CALM      30.03S
GREENCASTLE +  CLOUDY    79  72  78 NE3       30.02F
LAFAYETTE      PTSUNNY   82  65  56 SE5       30.00F
TERRE HAUTE    SUNNY     81  68  64 CALM      30.00F

$$

INZ030>032-037>040-046>048-054>057-064-065-262200-
CENTRAL INDIANA

CITY           SKY/WX    TMP DP  RH WIND       PRES   REMARKS
COLUMBUS       PTSUNNY   81  77  89 NE5       30.00F
INDIANAPOLIS   CLOUDY    82  67  60 N5        30.01F
-EAGLE CREEK   CLOUDY    83  66  56 N7        30.01F
KOKOMO *+      CLOUDY    86  63  45 NW3       30.01S
MARION +       CLOUDY    84  63  49 CALM      30.02S HAZE
MT COMFORT *+  CLOUDY    79  70  73 N6        30.02F
SHELBYVILLE    CLOUDY    83  69  62 NE6       30.01S
ZIONSVILLE +   CLOUDY    78  65  64 CALM      30.03F

$$

INZ033-034-041-042-049-050-058-059-262200-
EAST CENTRAL INDIANA

CITY           SKY/WX    TMP DP  RH WIND       PRES   REMARKS
MUNCIE         CLOUDY    83  67  58 NW5       30.02F

$$

INZ060-061-067>069-081>083-085>088-262200-
SOUTHWEST INDIANA

CITY           SKY/WX    TMP DP  RH WIND       PRES   REMARKS
EVANSVILLE     PTSUNNY   85  76  74 S7        29.97F
HUNTINGBURG *+ MOSUNNY   90  75  62 N3        29.96F HX 100
WASHINGTON +   MOSUNNY   85  76  75 MISG      29.97S HX  95

$$

INZ062-063-066-070>080-084-089>092-262200-
SOUTH CENTRAL AND SOUTHEAST INDIANA

CITY           SKY/WX    TMP DP  RH WIND       PRES   REMARKS
BLOOMINGTON    CLOUDY    84  73  69 N3        30.00F
MADISON *+     MOSUNNY   84  72  65 NE5       30.01F
NORTH VERNON + PTSUNNY   82  81  94 NE8       30.01S HX  95

$$





USA.gov is the U.S. government's official web portal to all federal, state and local government web resources and services.